This is the latest recevied weather packets stored in our database for station/object AD8BV. If no packets are shown the sender has not sent any weather packets the latest 10 day(s).
| Time | Temp. | Humidity | Pressure | Rain* | Wind** | Luminosity | Snow |
|---|---|---|---|---|---|---|---|
| 1777487195 | 12.22° C | 77% | 1012.2 hPa | 0 mm | - | 73 W/m² | - |
| 1777486891 | 12.22° C | 78% | 1012.2 hPa | 0 mm | - | 82 W/m² | - |
| 1777486588 | 12.22° C | 78% | 1012.1 hPa | 0 mm | - | 117 W/m² | - |
| 1777486286 | 12.22° C | 78% | 1012.1 hPa | 0 mm | - | 164 W/m² | - |
| 1777485983 | 11.67° C | 79% | 1012.1 hPa | 0 mm | - | 133 W/m² | - |
| 1777485680 | 11.67° C | 78% | 1012.5 hPa | 0 mm | - | 102 W/m² | - |
| 1777485375 | 11.67° C | 79% | 1012.3 hPa | 0 mm | - | 86 W/m² | - |
| 1777485071 | 11.67° C | 80% | 1012.5 hPa | 0 mm | - | 86 W/m² | - |
| 1777484769 | 11.67° C | 79% | 1012.4 hPa | 0 mm | - | 75 W/m² | - |
| 1777484464 | 11.67° C | 79% | 1012.6 hPa | 0 mm | - | 68 W/m² | - |
| 1777484162 | 11.67° C | 79% | 1012.3 hPa | 0 mm | - | 88 W/m² | - |
| 1777483857 | 12.22° C | 79% | 1012.4 hPa | 0 mm | - | 111 W/m² | - |
| 1777483554 | 12.22° C | 80% | 1012.5 hPa | 0 mm | - | 122 W/m² | - |
| 1777483249 | 12.22° C | 78% | 1012.5 hPa | 0 mm | - | 150 W/m² | - |
| 1777482946 | 12.22° C | 80% | 1012.6 hPa | 0 mm | - | 135 W/m² | - |
| 1777482642 | 12.22° C | 80% | 1012.6 hPa | 0 mm | - | 117 W/m² | - |
| 1777482339 | 12.22° C | 77% | 1012.6 hPa | 0 mm | - | 168 W/m² | - |
| 1777482036 | 12.22° C | 79% | 1012.9 hPa | 0 mm | - | 258 W/m² | - |
| 1777481734 | 12.22° C | 76% | 1012.6 hPa | 0 mm | - | 299 W/m² | - |
| 1777481431 | 12.22° C | 79% | 1012.8 hPa | 0 mm | - | 288 W/m² | - |
| 1777481127 | 12.22° C | 80% | 1012.8 hPa | 0 mm | - | 270 W/m² | - |
| 1777480824 | 12.78° C | 79% | 1012.8 hPa | 0 mm | - | 268 W/m² | - |
| 1777480521 | 12.22° C | 81% | 1012.9 hPa | 0 mm | - | 315 W/m² | - |
| 1777480217 | 12.22° C | 81% | 1012.8 hPa | 0 mm | - | 322 W/m² | - |
| 1777479914 | 12.22° C | 81% | 1012.9 hPa | 0 mm | - | 336 W/m² | - |
* Rain latest hour (hover to see other rain measurements)
** Current wind speed in m/s (hover to see current wind gust speed)